Weather in Cherepanovo

Russia / Novosibirsk Oblast     54°13′42″N   83°22′19″E
temp.,
°C
wind,
m/s
gust,
m/s
humid.,
%
clouds,
%
prec.,
mm/h
press.,
hPa
HPBL,
m
27 february, sat
sat2701:00−24sw51195100 0.1 1037589
04:00−24sw51095100 0.1 1038569
07:00−25sw4997100 0.2 1038466
10:00−24sw5995100 0.1 1038485
13:00−22sw5892100 0.2 1038600
16:00−21sw4791100 0.1 1038613
19:00−25sw3497100 0.1 103853
22:00−28sw339722 0.0 103930
28 february, sun
sun2801:00−29ssw349811 0.0 104037
04:00−29s349816 0.0 103937
07:00−29sse449924 0.0 103964
10:00−27sse489743 0.0 1038165
13:00−21sse589750 0.0 1035279
16:00−15s6108899 0.0 1032549
19:00−14sse599599 0.2 1028372
22:00−13se61194100 0.5 1025349
1 march, mon
mon101:00−12sse61194100 0.8 1022381
04:00−10sse61294100 0.4 1018541
07:00−7sse71295100 1.5 1014721
10:00−6s81494100 1.9 1011864
13:00−2ssw91594100 2.4 1009880
16:00−2ssw101692100 0.6 1008859
19:00−1sw91597100 1.6 1007781
22:00−1sw81495100 1.7 1007778
2 march, tue
tue201:00−3wsw61295100 1.8 1008557
04:00−5sw71395100 0.3 1010869
07:00−12wsw71293100 0.8 1013442
10:00−14wsw61193100 0.1 1016387
13:00−13wsw5893100 0.2 1019430
16:00−12wsw4792100 0.1 1019476
19:00−16wsw2397100 0.1 101827
22:00−18ssw119992 0.0 101820
3 march, wed
wed301:00−16se129695 0.1 101720
04:00−15sse2297100 0.3 101524
07:00−15e1297100 0.6 101523
10:00−13nne1195100 0.4 101576
13:00−10w3592100 0.8 1017435
16:00−10w4691100 0.3 1018683
19:00−12w3596100 0.6 1021152
22:00−16sw3597100 0.2 1023120